Regional Weather Roundup
Issued by NWS Bismarck, ND

Home | Current Version | Previous Version | Text Only | Print | Product List | Glossary On
Versions: 1 2 3 4 5 6 7 8 9 10 11 12 13 14 15 16 17 18 19 20 21 22 23 24 25 26 27 28 29 30 31 32 33 34 35 36 37 38 39 40 41 42 43 44 45 46 47 48 49 50
006
ASUS43 KBIS 011402
RWRBIS

NWR BROADCAST TEXT
NATIONAL WEATHER SERVICE BISMARCK ND
900 AM CDT SAT OCT 01 2016

NOTE: "FAIR" INDICATES FEW OR NO CLOUDS BELOW 12,000 FEET WITH NO
SIGNIFICANT WEATHER AND/OR OBSTRUCTIONS TO VISIBILITY.


CITY           SKY/WX    TMP DP  RH WIND       PRES   REMARKS
WILLISTON      CLEAR     50  46  86 CALM      29.98S
MINOT          SUNNY     50  47  89 CALM      30.01S
MINOT AFB      SUNNY     49  47  92 SE8       30.00F
BISMARCK       SUNNY     55  46  71 E9        30.03R
DICKINSON      SUNNY     50  45  83 SE3       29.97S
GARRISON         N/A     53  48  83 SE7       30.00S
HETTINGER ARPT SUNNY     50  45  83 CALM      30.01R
JAMESTOWN      CLOUDY    52  48  86 SE13      30.10R
BEACH          FAIR      48  48 100 S3        30.01S
CARRINGTON     FAIR      55  48  76 SE12      30.10F
HAZEN          FAIR      50  46  87 E3        30.02S
RUGBY          FAIR      54  48  82 SE10      30.05S
STANLEY        FAIR      48  48 100 CALM      30.03S
WATFORD CITY   FAIR      46  46 100 CALM      29.99S
$$

CITY           SKY/WX    TMP DP  RH WIND       PRES   REMARKS
GRAND FORKS    CLOUDY    52  48  86 SE9       30.15F
GRAND FORKS AF CLOUDY    51  49  93 S7        30.15R
DEVILS LAKE    CLOUDY    56  49  77 SE12      30.10S
FARGO          MOSUNNY   57  50  77 SE10      30.15S
CANDO          FAIR      54  54 100 SE12      30.11S
CAVALIER       FAIR      54  50  87 SE7       30.14S
GRAFTON        FAIR      50  50 100 SE9       30.17S
GWINNER        FAIR      54  50  87 SE7       30.13F
LANGDON        FAIR      55  50  82 SE10      30.12F
ROLLA            N/A     50  48  93 SE8       30.09F
WALHALLA       FAIR      50  50 100 SE8       30.14S
$$

CITY           SKY/WX    TMP DP  RH WIND       PRES   REMARKS
ABERDEEN       MOSUNNY   56  50  80 SE13      30.10S
MOBRIDGE       CLOUDY    61  46  57 SE18      29.99S
BUFFALO          N/A     51  47  86 CALM      29.94R
RAPID CITY     SUNNY     56  50  80 CALM      30.01R
GLASGOW        CLEAR     50  47  89 S5        29.95R
SIDNEY         CLEAR     50  48  93 CALM      29.98R
WOLF POINT     CLEAR     50  47  89 E5        29.97S
GLENDIVE       CLEAR     51  49  92 CALM      29.97S
MILES CITY     CLEAR     55  50  83 CALM      29.96S
BAKER          CLEAR     50  46  86 CALM      29.99S
$$

CITY           SKY/WX    TMP DP  RH WIND       PRES   REMARKS
BILLINGS       CLEAR     55  45  68 SW9       29.98R
GREAT FALLS    PTCLDY    64  41  42 S13       29.88R
$$





USA.gov is the U.S. government's official web portal to all federal, state and local government web resources and services.